QPF
0.00 0.00 0.00 0.00 0.00 0.00 0.00 0.00 0.00 0.00 0.00 0.00 0.00 0.00 0.00 0.00 0.00 0.00 0.00 0.00 0.00 0.00 0.00 0.02 0.00 0.10 0.27 0.41 0.39 0.22 0.18 0.11 0.08 0.13 0.10 0.07 0.04 0.04
0.00 0.00 0.00 0.00 0.00 0.00 0.00 0.00 0.00 0.00 0.00 0.00 0.00 0.00 0.00 0.00 0.00 0.00 0.00 0.00 0.00 0.01 0.01 0.01 0.02 0.04 0.04 0.05 0.11 0.11 0.06 0.03 0.03 0.06 0.07 0.06 0.05 0.05
0.00 0.00 0.00 0.00 0.00 0.00 0.00 0.00 0.00 0.00 0.00 0.00 0.00 0.00 0.00 0.00 0.00 0.00 0.00 0.00 0.00 0.00 0.00 0.01 0.01 0.01 0.03 0.03 0.04 0.04 0.03 0.02 0.02 0.02 0.03 0.02 0.03 0.02
0.00 0.00 0.00 0.00 0.00 0.00 0.00 0.00 0.00 0.00 0.00 0.00 0.00 0.00 0.00 0.00 0.00 0.00 0.00 0.00 0.00 0.00 0.00 0.00 0.00 0.00 0.00 0.00 0.00 0.01 0.01 0.00 0.00 0.01 0.01 0.01 0.01 0.01
0.00 0.00 0.00 0.00 0.00 0.00 0.00 0.00 0.00 0.00 0.00 0.00 0.00 0.00 0.00 0.00 0.00 0.00 0.00 0.00 0.00 0.00 0.00 0.00 0.00 0.00 0.00 0.00 0.00 0.00 0.00 0.00 0.00 0.00 0.00 0.00 0.00 0.00
0.00 0.00 0.00 0.00 0.00 0.00 0.00 0.00 0.00 0.00 0.00 0.00 0.00 0.00 0.00 0.00 0.00 0.00 0.00 0.00 0.00 0.00 0.00 0.00 0.00 0.00 0.00 0.00 0.00 0.00 0.00 0.00 0.00 0.00 0.00 0.00 0.00 0.00
0.00 0.00 0.00 0.00 0.00 0.00 0.00 0.00 0.00 0.00 0.00 0.00 0.00 0.00 0.00 0.00 0.00 0.00 0.00 0.00 0.00 0.00 0.00 0.00 0.00 0.00 0.00 0.00 0.00 0.00 0.00 0.00 0.00 0.00 0.00 0.00 0.00 0.00
0.00 0.00 0.00 0.00 0.00 0.00 0.00 0.00 0.00 0.00 0.00 0.00 0.00 0.00 0.00 0.00 0.00 0.00 0.00 0.00 0.00 0.00 0.00 0.00 0.00 0.00 0.00 0.00 0.00 0.00 0.00 0.00 0.00 0.00 0.00 0.00 0.00 0.00
0.00 0.00 0.00 0.00 0.00 0.00 0.00 0.00 0.00 0.00 0.00 0.00 0.00 0.00 0.00 0.00 0.00 0.00 0.00 0.00 0.00 0.00 0.00 0.00 0.00 0.00 0.00 0.00 0.00 0.00 0.00 0.00 0.00 0.00 0.00 0.00 0.00 0.00
0.00 0.00 0.00 0.00 0.00 0.00 0.00 0.00 0.00 0.00 0.00 0.00 0.00 0.00 0.00 0.00 0.00 0.00 0.00 0.00 0.00 0.00 0.00 0.00 0.00 0.00 0.00 0.00 0.00 0.00 0.00 0.00 0.00 0.00 0.00 0.00 0.00 0.00
0.00 0.00 0.00 0.00 0.00 0.00 0.00 0.00 0.00 0.00 0.00 0.00 0.00 0.00 0.00 0.00 0.00 0.00 0.00 0.00 0.00 0.00 0.00 0.00 0.00 0.00 0.00 0.00 0.00 0.00 0.00 0.00 0.00 0.00 0.00 0.00 0.00 0.00
0.00 0.00 0.00 0.00 0.00 0.00 0.00 0.00 0.00 0.00 0.00 0.00 0.00 0.00 0.00 0.00 0.00 0.00 0.00 0.00 0.00 0.00 0.00 0.00 0.00 0.00 0.00 0.00 0.00 0.00 0.00 0.00 0.00 0.00 0.00 0.00 0.00 0.00
0.00 0.00 0.00 0.00 0.00 0.00 0.00 0.00 0.00 0.00 0.00 0.00 0.00 0.00 0.00 0.00 0.00 0.00 0.00 0.00 0.00 0.00 0.00 0.00 0.00 0.00 0.00 0.00 0.00 0.00 0.00 0.00 0.00 0.00 0.00 0.00 0.00 0.00
0.00 0.00 0.00 0.00 0.00 0.00 0.00 0.00 0.00 0.00 0.00 0.00 0.00 0.00 0.00 0.00 0.00 0.00 0.00 0.00 0.00 0.00 0.00 0.00 0.01 0.00 0.00 0.00 0.00 0.00 0.00 0.00 0.00 0.00 0.00 0.00 0.00 0.00
0.00 0.00 0.00 0.00 0.00 0.00 0.00 0.00 0.00 0.00 0.00 0.00 0.00 0.00 0.00 0.00 0.00 0.00 0.00 0.00 0.00 0.00 0.00 0.00 0.00 0.00 0.00 0.00 0.00 0.00 0.00 0.00 0.00 0.00 0.00 0.00 0.00 0.00
0.00 0.00 0.00 0.00 0.00 0.00 0.00 0.00 0.00 0.00 0.00 0.00 0.00 0.00 0.00 0.00 0.00 0.00 0.00 0.00 0.00 0.00 0.00 0.00 0.00 0.00 0.00 0.00 0.00 0.00 0.00 0.00 0.00 0.00 0.00 0.00 0.00 0.00
0.00 0.00 0.00 0.00 0.00 0.00 0.00 0.00 0.00 0.00 0.00 0.00 0.00 0.00 0.00 0.00 0.00 0.00 0.00 0.00 0.00 0.00 0.00 0.00 0.00 0.00 0.00 0.00 0.00 0.00 0.00 0.00 0.00 0.00 0.00 0.00 0.00 0.00
0.00 0.00 0.00 0.00 0.00 0.00 0.00 0.00 0.00 0.00 0.00 0.00 0.00 0.00 0.00 0.00 0.00 0.00 0.00 0.00 0.00 0.00 0.00 0.00 0.00 0.00 0.00 0.00 0.00 0.00 0.00 0.00 0.00 0.00 0.00 0.00 0.00 0.00
0.00 0.00 0.00 0.00 0.00 0.00 0.00 0.00 0.00 0.00 0.00 0.00 0.00 0.00 0.00 0.00 0.00 0.00 0.00 0.00 0.00 0.00 0.00 0.00 0.00 0.00 0.00 0.00 0.00 0.00 0.00 0.00 0.00 0.00 0.00 0.00 0.00 0.00
0.00 0.00 0.00 0.00 0.00 0.00 0.00 0.00 0.00 0.00 0.00 0.00 0.00 0.00 0.00 0.00 0.00 0.00 0.00 0.00 0.00 0.00 0.00 0.00 0.00 0.00 0.00 0.00 0.00 0.00 0.00 0.00 0.00 0.00 0.00 0.00 0.00 0.00
0.00 0.00 0.00 0.00 0.00 0.00 0.00 0.00 0.00 0.00 0.00 0.00 0.00 0.00 0.00 0.00 0.00 0.00 0.00 0.00 0.00 0.00 0.00 0.00 0.00 0.00 0.00 0.01 0.01 0.00 0.00 0.00 0.00 0.00 0.00 0.00 0.00 0.00
0.00 0.00 0.00 0.00 0.00 0.00 0.00 0.00 0.00 0.00 0.00 0.00 0.00 0.00 0.00 0.00 0.00 0.00 0.00 0.00 0.00 0.00 0.00 0.00 0.00 0.00 0.00 0.01 0.01 0.00 0.00 0.00 0.00 0.00 0.00 0.00 0.00 0.00
0.00 0.00 0.00 0.00 0.00 0.00 0.00 0.00 0.00 0.00 0.00 0.00 0.00 0.00 0.00 0.00 0.00 0.00 0.00 0.00 0.00 0.00 0.00 0.00 0.00 0.00 0.00 0.00 0.00 0.00 0.00 0.00 0.00 0.00 0.00 0.00 0.00 0.00
MSLP
1019.20 1019.20 1019.26 1019.40 1019.36 1019.47 1019.56 1019.32 1019.25 1019.26 1019.16 1019.74 1020.31 1020.87 1020.96 1020.93 1020.98 1020.65 1020.64 1020.54 1020.04 1019.32 1018.69 1018.71 1018.42 1018.17 1017.30 1016.75 1017.21 1017.99 1018.79 1019.76 1020.51 1021.38 1021.79 1022.12 1022.24 1022.42
1019.63 1019.66 1019.70 1019.84 1019.95 1019.79 1019.81 1019.68 1019.85 1019.89 1019.96 1020.47 1021.17 1021.47 1021.46 1021.09 1021.23 1021.02 1021.07 1020.89 1020.67 1020.02 1019.33 1019.15 1019.07 1018.87 1018.74 1018.31 1018.14 1018.89 1019.35 1019.91 1020.47 1021.10 1021.50 1021.73 1021.98 1022.25
1020.08 1020.04 1020.29 1020.28 1020.25 1020.22 1020.32 1020.18 1020.26 1020.56 1020.53 1021.20 1021.68 1021.89 1021.64 1021.20 1021.35 1021.05 1021.26 1021.16 1021.17 1020.68 1020.22 1019.91 1019.71 1019.64 1019.64 1019.55 1019.59 1019.70 1019.94 1020.17 1020.59 1020.80 1021.20 1021.44 1021.89 1022.10
1020.37 1020.53 1020.57 1020.72 1020.87 1020.90 1020.86 1020.87 1021.14 1021.36 1021.01 1021.09 1021.69 1021.92 1021.96 1021.72 1021.55 1021.31 1021.39 1021.32 1021.32 1021.20 1020.87 1020.61 1020.33 1020.24 1020.19 1020.03 1020.15 1020.35 1020.37 1020.26 1020.50 1020.79 1021.14 1021.48 1021.62 1021.93
1020.85 1021.05 1021.20 1021.12 1021.44 1021.44 1021.45 1021.48 1021.33 1021.42 1021.11 1021.31 1021.54 1022.01 1022.07 1021.92 1021.67 1021.61 1021.69 1021.51 1021.44 1021.49 1021.20 1021.10 1020.82 1020.65 1020.39 1020.24 1020.24 1020.21 1020.23 1020.36 1020.64 1020.78 1021.15 1021.48 1021.74 1021.79
1021.74 1021.95 1021.83 1021.71 1022.17 1022.08 1021.93 1022.03 1021.66 1021.52 1021.40 1021.42 1021.74 1022.21 1022.24 1022.30 1022.17 1021.85 1021.28 1021.37 1021.40 1021.36 1021.33 1021.41 1021.19 1020.99 1020.86 1020.81 1020.78 1020.64 1020.59 1020.60 1020.77 1020.98 1021.17 1021.65 1021.79 1021.87
1022.21 1022.45 1022.58 1022.54 1022.79 1022.64 1022.29 1022.29 1022.11 1021.95 1021.88 1021.87 1021.88 1022.01 1022.08 1021.96 1022.05 1022.01 1021.72 1021.57 1021.36 1021.69 1021.21 1020.94 1020.94 1020.78 1020.71 1020.83 1020.94 1021.03 1021.12 1021.21 1021.23 1021.32 1021.43 1021.50 1021.64 1021.81
1022.66 1023.16 1023.11 1023.25 1023.33 1023.21 1023.31 1023.12 1022.85 1022.55 1022.57 1022.53 1022.43 1022.22 1022.35 1022.42 1022.45 1022.51 1022.36 1021.97 1021.56 1022.02 1021.78 1021.14 1021.28 1020.97 1020.87 1020.98 1021.33 1021.47 1021.38 1021.31 1021.31 1021.33 1021.33 1021.37 1021.43 1021.56
1023.22 1023.45 1023.40 1023.56 1023.40 1023.44 1023.62 1023.59 1023.48 1023.40 1023.48 1022.96 1022.67 1022.71 1022.75 1022.97 1023.34 1023.13 1022.86 1022.68 1022.38 1022.24 1022.46 1021.38 1021.41 1021.11 1021.08 1021.25 1021.58 1021.54 1021.29 1021.14 1021.07 1021.03 1021.07 1021.13 1021.22 1021.21
1023.58 1023.55 1023.39 1023.51 1023.60 1023.71 1023.71 1023.64 1023.64 1023.56 1023.51 1023.47 1023.30 1023.28 1023.29 1023.24 1023.26 1023.47 1023.33 1023.09 1022.71 1022.69 1022.77 1021.98 1021.62 1021.36 1021.17 1021.11 1021.52 1021.51 1021.30 1021.11 1020.99 1020.94 1020.88 1020.87 1020.94 1021.13
1023.81 1023.63 1023.60 1023.62 1023.63 1023.95 1023.83 1023.80 1023.55 1023.65 1023.92 1024.04 1023.99 1023.88 1023.78 1023.76 1023.50 1023.22 1023.24 1023.18 1022.68 1022.59 1022.92 1022.74 1022.11 1021.91 1021.50 1021.34 1021.22 1021.38 1021.20 1021.12 1020.91 1020.80 1020.72 1020.69 1020.77 1021.01
1023.69 1023.78 1024.02 1023.93 1023.79 1023.72 1023.77 1023.56 1023.44 1023.52 1023.74 1023.75 1023.57 1023.57 1023.69 1023.62 1023.72 1023.46 1023.49 1023.52 1023.29 1022.94 1023.27 1023.27 1022.91 1022.69 1021.89 1021.48 1021.47 1021.22 1020.91 1020.94 1021.03 1021.01 1021.03 1021.06 1021.08 1021.06
1023.66 1023.64 1023.90 1024.21 1023.92 1023.72 1023.78 1023.56 1023.50 1023.61 1023.78 1023.75 1023.62 1023.54 1023.50 1023.50 1023.53 1023.70 1023.84 1023.93 1023.79 1023.55 1023.50 1023.68 1023.47 1023.29 1022.90 1022.14 1021.54 1021.25 1021.21 1020.98 1020.82 1020.71 1020.84 1020.93 1020.96 1020.98
1023.67 1023.75 1023.91 1024.21 1024.14 1024.06 1023.80 1023.68 1023.70 1023.95 1023.79 1023.70 1023.64 1023.55 1023.61 1023.73 1023.94 1024.07 1024.14 1024.11 1023.97 1024.03 1023.83 1023.95 1023.69 1023.46 1023.18 1022.72 1021.96 1021.18 1021.09 1021.00 1020.97 1020.77 1020.59 1020.53 1020.51 1020.51
1023.73 1023.75 1024.04 1024.24 1024.27 1024.13 1024.07 1023.95 1024.19 1023.86 1023.70 1023.69 1023.58 1023.68 1023.85 1024.00 1024.33 1024.19 1024.10 1024.00 1023.91 1023.76 1023.65 1023.61 1023.55 1023.34 1023.30 1022.82 1022.15 1021.68 1021.46 1020.72 1020.77 1020.80 1020.58 1020.19 1019.97 1019.78
1023.74 1023.69 1023.89 1024.16 1024.22 1024.13 1024.06 1024.02 1023.94 1023.78 1023.64 1023.50 1023.54 1023.65 1023.80 1023.99 1023.85 1023.84 1023.85 1023.74 1023.58 1023.20 1023.14 1023.34 1023.34 1023.24 1022.83 1022.38 1022.02 1021.36 1021.18 1020.85 1020.14 1020.08 1019.98 1019.73 1019.49 1019.21
1023.43 1023.65 1023.68 1023.66 1023.65 1023.60 1023.66 1023.72 1023.72 1023.68 1023.59 1023.53 1023.57 1023.53 1023.49 1023.50 1023.47 1023.52 1023.54 1023.51 1023.29 1022.93 1022.74 1022.78 1022.81 1022.80 1022.43 1022.20 1021.57 1020.79 1020.19 1019.79 1019.59 1019.43 1019.50 1019.14 1018.68 1018.34
1023.06 1023.18 1023.12 1023.10 1023.22 1023.20 1023.24 1023.27 1023.35 1023.48 1023.39 1023.49 1023.45 1023.40 1023.30 1023.25 1023.25 1023.25 1023.23 1023.12 1022.83 1022.49 1022.30 1022.23 1022.35 1022.24 1021.55 1020.51 1020.62 1020.06 1019.66 1019.22 1019.03 1018.93 1018.87 1018.61 1017.92 1017.66
1022.58 1022.63 1022.67 1022.68 1022.77 1022.88 1022.99 1023.06 1023.05 1023.17 1023.38 1023.44 1023.35 1023.27 1023.23 1023.14 1023.08 1022.92 1022.75 1022.59 1022.28 1022.03 1021.79 1021.79 1021.86 1021.85 1021.33 1020.28 1019.42 1019.50 1019.35 1018.98 1018.72 1018.35 1018.07 1017.78 1017.11 1016.45
1021.97 1022.13 1022.14 1022.26 1022.34 1022.47 1022.54 1022.65 1022.76 1022.95 1023.04 1023.03 1022.97 1022.97 1022.99 1022.91 1022.75 1022.55 1022.32 1022.14 1021.89 1021.58 1021.34 1021.22 1021.08 1021.02 1020.85 1020.25 1019.67 1019.04 1019.05 1018.77 1018.42 1017.85 1017.34 1016.91 1016.27 1015.73
1021.37 1021.57 1021.68 1021.74 1021.86 1021.99 1022.12 1022.25 1022.41 1022.52 1022.54 1022.59 1022.56 1022.56 1022.54 1022.50 1022.29 1022.14 1021.99 1021.76 1021.52 1021.15 1020.61 1020.27 1019.94 1019.85 1020.03 1020.15 1019.43 1018.53 1017.84 1017.63 1017.58 1017.29 1016.81 1016.47 1015.77 1015.07
1020.59 1020.79 1020.93 1021.10 1021.24 1021.43 1021.60 1021.68 1021.82 1021.97 1021.95 1021.94 1021.94 1021.94 1021.91 1021.93 1021.79 1021.64 1021.49 1021.23 1020.86 1020.48 1020.01 1019.74 1019.62 1019.60 1019.58 1019.32 1018.50 1017.78 1017.13 1016.55 1016.14 1015.90 1015.66 1015.63 1015.20 1014.13
1019.91 1020.12 1020.26 1020.38 1020.55 1020.75 1020.93 1021.02 1021.16 1021.23 1021.21 1021.24 1021.26 1021.21 1021.25 1021.23 1021.21 1021.05 1020.85 1020.51 1020.22 1019.86 1019.53 1019.11 1018.91 1018.74 1018.46 1018.24 1017.73 1017.03 1016.35 1015.83 1015.22 1014.62 1013.82 1013.62 1013.49 1013.22
Thickness
5596 5592 5588 5583 5581 5578 5574 5574 5573 5572 5571 5561 5552 5540 5536 5532 5530 5529 5526 5523 5522 5523 5523 5520 5518 5514 5514 5512 5505 5503 5495 5492 5489 5485 5484 5482 5484 5485
5581 5578 5575 5571 5568 5567 5563 5561 5557 5556 5557 5545 5534 5528 5524 5523 5520 5520 5516 5515 5512 5512 5513 5510 5508 5505 5500 5498 5496 5489 5487 5484 5481 5479 5478 5478 5479 5480
5568 5566 5561 5559 5556 5554 5550 5549 5545 5539 5541 5527 5520 5516 5514 5515 5511 5511 5507 5506 5502 5501 5501 5500 5498 5495 5492 5488 5485 5481 5478 5477 5474 5474 5473 5474 5474 5474
5556 5553 5550 5546 5543 5540 5538 5534 5528 5523 5524 5523 5511 5507 5504 5504 5502 5502 5498 5497 5494 5492 5491 5489 5488 5486 5484 5483 5479 5476 5475 5474 5471 5470 5468 5469 5469 5467
5544 5540 5537 5535 5529 5527 5524 5520 5519 5515 5515 5511 5505 5498 5496 5495 5495 5492 5489 5487 5486 5483 5482 5480 5479 5477 5476 5477 5475 5475 5473 5471 5468 5466 5463 5461 5460 5461
5527 5524 5523 5521 5514 5513 5512 5508 5508 5506 5504 5502 5497 5489 5487 5484 5483 5483 5486 5482 5479 5476 5474 5471 5470 5470 5468 5466 5464 5465 5465 5463 5461 5458 5456 5451 5452 5452
5515 5511 5509 5507 5501 5501 5502 5499 5497 5495 5493 5491 5489 5486 5482 5481 5477 5475 5475 5473 5472 5465 5466 5465 5464 5463 5461 5458 5455 5453 5450 5448 5447 5446 5445 5445 5443 5442
5503 5497 5496 5493 5490 5489 5485 5484 5484 5483 5480 5478 5476 5476 5472 5469 5466 5463 5461 5462 5463 5454 5454 5456 5452 5452 5450 5447 5443 5441 5439 5438 5436 5435 5434 5433 5432 5431
5490 5487 5486 5482 5482 5479 5475 5473 5472 5470 5466 5468 5467 5464 5461 5456 5450 5449 5449 5448 5447 5445 5440 5445 5441 5440 5437 5434 5430 5429 5428 5428 5427 5425 5423 5422 5421 5420
5479 5478 5478 5476 5473 5470 5468 5466 5463 5461 5458 5455 5454 5451 5448 5445 5442 5438 5436 5435 5435 5431 5427 5430 5430 5428 5425 5423 5418 5416 5415 5414 5413 5411 5410 5408 5406 5403
5470 5470 5469 5467 5465 5461 5459 5456 5456 5452 5447 5443 5441 5438 5436 5433 5431 5430 5427 5424 5426 5423 5415 5413 5416 5413 5412 5409 5406 5403 5402 5400 5399 5397 5395 5393 5391 5388
5464 5462 5459 5457 5455 5453 5451 5449 5448 5444 5439 5436 5433 5430 5427 5424 5420 5418 5415 5411 5410 5410 5402 5398 5397 5395 5397 5395 5389 5388 5387 5385 5382 5379 5376 5373 5371 5369
5457 5456 5452 5446 5445 5444 5441 5440 5438 5434 5430 5426 5424 5421 5418 5414 5410 5405 5401 5396 5394 5393 5388 5382 5379 5375 5373 5374 5373 5372 5368 5367 5366 5363 5360 5356 5353 5350
5449 5447 5443 5438 5436 5434 5433 5431 5428 5423 5421 5418 5414 5412 5407 5403 5397 5392 5388 5383 5379 5376 5372 5366 5362 5357 5353 5351 5351 5354 5352 5349 5347 5345 5343 5341 5339 5336
5440 5438 5433 5429 5427 5425 5423 5421 5416 5415 5412 5408 5406 5401 5395 5390 5384 5380 5375 5371 5367 5364 5359 5354 5348 5343 5336 5334 5333 5331 5330 5333 5330 5328 5327 5325 5323 5321
5431 5429 5424 5421 5418 5417 5414 5411 5408 5406 5403 5401 5396 5391 5385 5379 5375 5370 5365 5360 5357 5354 5349 5341 5334 5328 5324 5321 5318 5317 5316 5315 5316 5314 5313 5311 5310 5309
5424 5420 5418 5415 5413 5412 5408 5404 5400 5397 5393 5390 5385 5381 5376 5371 5366 5361 5355 5349 5344 5341 5336 5331 5324 5317 5312 5307 5307 5307 5308 5307 5305 5302 5299 5299 5298 5298
5417 5415 5413 5411 5408 5405 5401 5397 5393 5388 5384 5379 5374 5370 5366 5361 5356 5351 5345 5338 5332 5328 5323 5317 5310 5305 5305 5306 5299 5298 5297 5296 5293 5290 5286 5286 5288 5285
5411 5409 5406 5404 5401 5396 5392 5387 5384 5379 5372 5367 5363 5359 5355 5350 5345 5339 5333 5327 5321 5315 5309 5303 5297 5291 5288 5292 5294 5286 5284 5283 5281 5279 5277 5276 5280 5279
5405 5401 5399 5396 5392 5388 5384 5379 5374 5368 5363 5358 5354 5350 5345 5339 5333 5327 5321 5314 5307 5301 5295 5290 5286 5282 5278 5280 5279 5276 5272 5269 5266 5268 5266 5266 5268 5268
5399 5394 5391 5388 5385 5381 5376 5371 5365 5359 5355 5350 5346 5341 5336 5328 5322 5316 5308 5300 5294 5288 5285 5282 5280 5277 5272 5268 5268 5269 5268 5261 5259 5259 5258 5256 5257 5261
5394 5390 5386 5382 5378 5373 5368 5363 5357 5352 5348 5344 5339 5333 5327 5319 5312 5304 5296 5289 5284 5280 5278 5274 5270 5267 5263 5260 5262 5263 5261 5258 5256 5258 5255 5252 5255 5261
5388 5384 5380 5376 5372 5367 5361 5356 5351 5346 5343 5337 5331 5325 5318 5310 5302 5294 5287 5282 5276 5272 5269 5268 5265 5262 5259 5255 5254 5256 5255 5253 5256 5260 5261 5260 5260 5261